カタログに戻る

STARLINK-36452

運用中通信VLEO
NORAD 67405·PAYLOAD·🇺🇸 United States

打ち上げ Jan 12, 2026 から Cape Canaveral Space Force Station

Loading…

次のパス (今後24時間)

TLE

最新Source: CelesTrak SupGP

元期: Sep 14, 2026, 21:30 UTC

1 67405C 26005B   26257.89631944  .00030593  00000+0  11083-2 0  2572
2 67405  42.9992 249.0868 0001388 262.6538 229.5031 15.27555458    18

AllMySatでSTARLINK-36452をリアルタイム追跡

Download on the App Store